Voltar ao catálogo

SL-12 R/B(2)

AtivoGEO
NORAD 19347·ROCKET BODY·🇷🇺 Russia

Lançado Aug 1, 1988 de Baikonur Cosmodrome

Loading…

TLE

AtualizadoSource: Space-Track

Época: Aug 28, 2026, 02:32 UTC

1 19347U 88066D   26240.10567634 -.00000223  00000-0  00000+0 0  9995
2 19347  12.1018 331.4157 0031778 147.1619 227.5524  0.98659621136674

Acompanhe SL-12 R/B(2) em tempo real com AllMySat

Download on the App Store